Preston, Minnesota, United States (55965)
Lat: 43.67N, Lon: 92.08W
Wx Zone: MNZ095
Local Info
Past Weather Observations for Tuesday, March 24, 2015

NOTE: This archive is for the closest National Weather Service station to Preston. Information may differ from the station used for current weather conditions.

Click here for Long-term Archive

Time Weather Temperature Dewpoint Humidity Pressure Winds Precip Visibility
23:55
Overcast
Light Snow
28°F / -2°C 28°F / -2°C 100% 29.89 in
(1012 mb)
SSE 3.5 mph
(SSE 6 kph)
0.03 in
(0.76 mm)
1 1/2SM
23:34
Overcast
Light Snow
28°F / -2°C 28°F / -2°C 100% 29.89 in
(1012 mb)
SSE 3.5 mph
(SSE 6 kph)
0.03 in
(0.76 mm)
1 1/2SM
23:15
Overcast
Light Snow
28°F / -2°C 28°F / -2°C 100% 29.89 in
(1012 mb)
SSE 4.6 mph
(SSE 7 kph)
0.02 in
(0.51 mm)
1SM
22:55
Overcast
Snow
28°F / -2°C 28°F / -2°C 100% 29.89 in
(1012 mb)
SE 8.1 mph
(SE 13 kph)
0.06 in
(1.52 mm)
3/4SM
22:35
Overcast
Snow
30°F / -1°C 28°F / -2°C 93% 29.89 in
(1012 mb)
SE 8.1 mph
(SE 13 kph)
0.04 in
(1.02 mm)
3/4SM
22:15
Overcast
Light Snow
30°F / -1°C 28°F / -2°C 93% 29.89 in
(1012 mb)
SE 8.1 mph
(SE 13 kph)
0.01 in
(0.25 mm)
1SM
21:55
Overcast
Light Snow
30°F / -1°C 28°F / -2°C 93% 29.92 in
(1013 mb)
SE 11.5 mph
(SE 19 kph)
0.03 in
(0.76 mm)
3SM
21:35
Overcast
Light Snow
30°F / -1°C 28°F / -2°C 93% 29.92 in
(1013 mb)
SE 10.4 mph
(SE 17 kph)
0.02 in
(0.51 mm)
2SM
21:14
Overcast
Light Snow
30°F / -1°C 28°F / -2°C 93% 29.92 in
(1013 mb)
SE 10.4 mph
(SE 17 kph)
- 3SM
20:55
Overcast
Light Snow
30°F / -1°C 28°F / -2°C 93% 29.92 in
(1013 mb)
SE 6.9 mph
(SE 11 kph)
0.05 in
(1.27 mm)
3SM
20:34
Overcast
Light Snow
30°F / -1°C 28°F / -2°C 93% 29.95 in
(1014 mb)
SE 6.9 mph
(SE 11 kph)
0.03 in
(0.76 mm)
3SM
20:15
Overcast
Light Snow
30°F / -1°C 28°F / -2°C 93% 29.95 in
(1014 mb)
SE 4.6 mph
(SE 7 kph)
0.01 in
(0.25 mm)
4SM
19:54
Overcast
Light Snow
30°F / -1°C 27°F / -3°C 86% 29.95 in
(1014 mb)
E 6.9 mph
(E 11 kph)
0.06 in
(1.52 mm)
4SM
19:35
Overcast
Light Snow
30°F / -1°C 27°F / -3°C 86% 29.95 in
(1014 mb)
E 8.1 mph
(E 13 kph)
0.04 in
(1.02 mm)
4SM
19:15
Overcast
Light Snow
30°F / -1°C 27°F / -3°C 86% 29.95 in
(1014 mb)
ESE 9.2 mph
(ESE 15 kph)
0.02 in
(0.51 mm)
2 1/2SM
18:55
Overcast
Light Snow
30°F / -1°C 27°F / -3°C 86% 29.95 in
(1014 mb)
ESE 9.2 mph
(ESE 15 kph)
0.02 in
(0.51 mm)
4SM
18:35
Overcast
Light Snow
30°F / -1°C 25°F / -4°C 80% 29.95 in
(1014 mb)
SE 11.5 mph
(SE 19 kph)
0.01 in
(0.25 mm)
1 1/2SM
18:14
Overcast
Light Snow
32°F / 0°C 23°F / -5°C 69% 29.98 in
(1015 mb)
SE 10.4 mph
(SE 17 kph)
- 3SM
17:55
Overcast
34°F / 1°C 21°F / -6°C 60% 29.98 in
(1015 mb)
SE 10.4 mph
(SE 17 kph)
- 7SM
17:35
Overcast
34°F / 1°C 19°F / -7°C 56% 29.98 in
(1015 mb)
SE 13.8 mph
(SE 22 kph)
- 10SM
17:14
Overcast
34°F / 1°C 19°F / -7°C 56% 29.98 in
(1015 mb)
SE 11.5 mph
(SE 19 kph)
- 10SM
16:55
Mostly Cloudy
36°F / 2°C 19°F / -7°C 52% 30.01 in
(1016 mb)
SE 11.5 mph
(SE 19 kph)
- 10SM
16:35
Clear
36°F / 2°C 19°F / -7°C 52% 30.01 in
(1016 mb)
SE 10.4 mph
(SE 17 kph)
- 10SM
16:14
Clear
36°F / 2°C 19°F / -7°C 52% 30.01 in
(1016 mb)
SE 13.8 mph
(SE 22 kph)
- 10SM
15:55
Clear
36°F / 2°C 18°F / -8°C 48% 30.01 in
(1016 mb)
SE 17.3 mph
(SE 28 kph)
- 10SM
15:35
Clear
37°F / 3°C 18°F / -8°C 45% 30.01 in
(1016 mb)
SE 17.3 mph
(SE 28 kph)
- 10SM
15:14
Clear
37°F / 3°C 18°F / -8°C 45% 30.04 in
(1017 mb)
SE 16.1 mph
(SE 26 kph)
- 10SM
14:55
Clear
36°F / 2°C 18°F / -8°C 48% 30.04 in
(1017 mb)
SE 16.1 mph
(SE 26 kph)
- 10SM
14:34
Clear
37°F / 3°C 21°F / -6°C 52% 30.04 in
(1017 mb)
SE 10.4 mph
(SE 17 kph)
- 10SM
14:15
Clear
36°F / 2°C 19°F / -7°C 52% 30.04 in
(1017 mb)
ESE 16.1 mph
(ESE 26 kph)
- 10SM
13:55
Clear
37°F / 3°C 19°F / -7°C 48% 30.06 in
(1018 mb)
SE 13.8 mph
(SE 22 kph)
- 10SM
13:35
Clear
36°F / 2°C 21°F / -6°C 56% 30.04 in
(1017 mb)
SE 16.1 mph
(SE 26 kph)
- 10SM
13:15
Clear
36°F / 2°C 19°F / -7°C 52% 30.06 in
(1018 mb)
SE 13.8 mph
(SE 22 kph)
- 10SM
12:54
Clear
36°F / 2°C 21°F / -6°C 56% 30.06 in
(1018 mb)
SE 18.4 mph
(SE 30 kph)
- 10SM
12:35
Clear
34°F / 1°C 23°F / -5°C 65% 30.09 in
(1019 mb)
SE 16.1 mph
(SE 26 kph)
- 10SM
12:14
Clear
34°F / 1°C 23°F / -5°C 65% 30.09 in
(1019 mb)
SE 18.4 mph
(SE 30 kph)
- 7SM
11:55
Clear
32°F / 0°C 23°F / -5°C 69% 30.12 in
(1020 mb)
SE 17.3 mph
(SE 28 kph)
- 10SM
11:34
Partly Cloudy
32°F / 0°C 23°F / -5°C 69% 30.12 in
(1020 mb)
SE 16.1 mph
(SE 26 kph)
- 7SM
11:15
Partly Cloudy
32°F / 0°C 23°F / -5°C 69% 30.15 in
(1021 mb)
SE 15 mph
(SE 24 kph)
- 10SM
10:55
Partly Cloudy
30°F / -1°C 23°F / -5°C 75% 30.15 in
(1021 mb)
SE 15 mph
(SE 24 kph)
- 10SM
10:35
Overcast
30°F / -1°C 23°F / -5°C 75% 30.15 in
(1021 mb)
SE 12.7 mph
(SE 20 kph)
- 10SM
10:14
Overcast
28°F / -2°C 23°F / -5°C 80% 30.18 in
(1022 mb)
SSE 15 mph
(SSE 24 kph)
- 10SM
09:55
Overcast
28°F / -2°C 23°F / -5°C 80% 30.18 in
(1022 mb)
SSE 13.8 mph
(SSE 22 kph)
- 10SM
09:34
Overcast
27°F / -3°C 23°F / -5°C 86% 30.18 in
(1022 mb)
SE 11.5 mph
(SE 19 kph)
- 7SM
09:15
Overcast
27°F / -3°C 23°F / -5°C 86% 30.15 in
(1021 mb)
SE 13.8 mph
(SE 22 kph)
- 7SM
08:55
Overcast
27°F / -3°C 23°F / -5°C 86% 30.15 in
(1021 mb)
SSE 16.1 mph
(SSE 26 kph)
- 7SM
08:34
Overcast
Fog And Mist
25°F / -4°C 23°F / -5°C 93% 30.15 in
(1021 mb)
SE 18.4 mph
(SE 30 kph)
- 4SM
08:15
Overcast
Fog And Mist
25°F / -4°C 23°F / -5°C 93% 30.18 in
(1022 mb)
SE 13.8 mph
(SE 22 kph)
- 3SM
07:55
Overcast
Fog And Mist
25°F / -4°C 23°F / -5°C 93% 30.15 in
(1021 mb)
SE 16.1 mph
(SE 26 kph)
- 2 1/2SM
07:34
Overcast
Fog And Mist
25°F / -4°C 23°F / -5°C 93% 30.15 in
(1021 mb)
SE 13.8 mph
(SE 22 kph)
- 2 1/2SM
07:15
Overcast
Fog And Mist
23°F / -5°C 23°F / -5°C 100% 30.18 in
(1022 mb)
SE 11.5 mph
(SE 19 kph)
- 3SM
06:55
Overcast
Fog And Mist
23°F / -5°C 23°F / -5°C 100% 30.18 in
(1022 mb)
SE 10.4 mph
(SE 17 kph)
- 4SM
06:35
Overcast
23°F / -5°C 21°F / -6°C 93% 30.18 in
(1022 mb)
SE 9.2 mph
(SE 15 kph)
- 7SM
06:15
Overcast
Fog And Mist
21°F / -6°C 21°F / -6°C 100% 30.18 in
(1022 mb)
SE 9.2 mph
(SE 15 kph)
- 5SM
05:55
Overcast
21°F / -6°C 19°F / -7°C 93% 30.18 in
(1022 mb)
SE 8.1 mph
(SE 13 kph)
- 7SM
05:34
Overcast
Fog And Mist
21°F / -6°C 19°F / -7°C 93% 30.18 in
(1022 mb)
SE 8.1 mph
(SE 13 kph)
- 5SM
05:15
Overcast
Fog And Mist
19°F / -7°C 19°F / -7°C 100% 30.18 in
(1022 mb)
SE 9.2 mph
(SE 15 kph)
- 5SM
04:55
Mostly Cloudy
Fog And Mist
19°F / -7°C 18°F / -8°C 93% 30.18 in
(1022 mb)
SE 8.1 mph
(SE 13 kph)
- 5SM
04:34
Clear
19°F / -7°C 18°F / -8°C 93% 30.18 in
(1022 mb)
SE 8.1 mph
(SE 13 kph)
- 7SM
04:15
Clear
19°F / -7°C 18°F / -8°C 93% 30.18 in
(1022 mb)
SE 6.9 mph
(SE 11 kph)
- 7SM
03:55
Clear
19°F / -7°C 18°F / -8°C 93% 30.18 in
(1022 mb)
SE 6.9 mph
(SE 11 kph)
- 7SM
03:34
Clear
21°F / -6°C 19°F / -7°C 93% 30.18 in
(1022 mb)
SE 5.8 mph
(SE 9 kph)
- 7SM
03:15
Clear
21°F / -6°C 19°F / -7°C 93% 30.18 in
(1022 mb)
SE 6.9 mph
(SE 11 kph)
- 7SM
02:55
Clear
21°F / -6°C 19°F / -7°C 93% 30.18 in
(1022 mb)
SE 8.1 mph
(SE 13 kph)
- 7SM
02:35
Clear
23°F / -5°C 21°F / -6°C 93% 30.18 in
(1022 mb)
SE 6.9 mph
(SE 11 kph)
- 7SM
02:15
Clear
23°F / -5°C 21°F / -6°C 93% 30.18 in
(1022 mb)
SE 8.1 mph
(SE 13 kph)
- 7SM
01:54
Clear
23°F / -5°C 21°F / -6°C 93% 30.21 in
(1023 mb)
SE 5.8 mph
(SE 9 kph)
- 10SM
01:35
Clear
21°F / -6°C 19°F / -7°C 93% 30.21 in
(1023 mb)
SE 5.8 mph
(SE 9 kph)
- 10SM
01:15
Clear
21°F / -6°C 19°F / -7°C 93% 30.21 in
(1023 mb)
SE 5.8 mph
(SE 9 kph)
- 10SM
00:54
Clear
21°F / -6°C 19°F / -7°C 93% 30.21 in
(1023 mb)
SE 5.8 mph
(SE 9 kph)
- 10SM
00:35
Clear
23°F / -5°C 21°F / -6°C 93% 30.21 in
(1023 mb)
SSE 3.5 mph
(SSE 6 kph)
- 10SM
00:15
Clear
23°F / -5°C 21°F / -6°C 93% 30.21 in
(1023 mb)
SE 4.6 mph
(SE 7 kph)
- 7SM
Time Weather Temperature Dewpoint Humidity Pressure Winds Precip Visibility


Weather for websites

WeatherForYou.com, LLC is not responsible for any damages or problems caused by this service. Current weather conditions are obtained from the closest station including government and personal stations which may have varying degrees of accuracy. Weather forecasts are derived from the NOAA NDFD. Like all things, this site belongs to Jesus Christ... He just trusts me to maintain it. If you have any questions or comments email webmaster@weatherforyou.com

Copyright © 2015, WeatherForYou.com LLC. All rights reserved.